Location: Montreal
(45.5000°N, 73.5833°W)
Time: 01:19:04
(UTC-04:00)

N. Korean satellite - Pass Details

Date: 07 October 2017
Orbit: 459 x 517 km, 97.2° (Epoch: 19 October)

Event Time Altitude Azimuth Distance (km) Brightness Sun altitude
Rises 18:59:35 0° 171° (S) 2,578 10.2 -7.3°
Reaches altitude 10° 19:01:40 10° 173° (S) 1,690 9.3 -7.6°
Maximum altitude 19:05:18 72° 258° (WSW) 519 6.9 -8.3°
Drops below altitude 10° 19:08:53 10° 344° (NNW) 1,671 9.5 -8.9°
Sets 19:10:57 0° 346° (NNW) 2,546 10.4 -9.3°
